QPF
0.00 0.00 0.00 0.00 0.00 0.00 0.00 0.00 0.00 0.01 0.02 0.01 0.01 0.00 0.01 0.00 0.01 0.02 0.01 0.02 0.02 0.03 0.02 0.01 0.02 0.01 0.01 0.01 0.01 0.01 0.01 0.01 0.01 0.00 0.01 0.00 0.00 0.00 0.01 0.01 0.01 0.01 0.01 0.01 0.00 0.00 0.00 0.00 0.00
0.00 0.00 0.00 0.00 0.00 0.00 0.00 0.00 0.01 0.01 0.01 0.01 0.01 0.01 0.01 0.00 0.00 0.01 0.02 0.02 0.01 0.02 0.03 0.02 0.02 0.02 0.01 0.01 0.02 0.02 0.01 0.01 0.01 0.00 0.00 0.00 0.00 0.00 0.00 0.01 0.01 0.01 0.01 0.01 0.01 0.01 0.01 0.00 0.00
0.00 0.00 0.00 0.00 0.00 0.00 0.00 0.00 0.01 0.01 0.01 0.01 0.01 0.01 0.01 0.01 0.01 0.01 0.01 0.02 0.02 0.03 0.03 0.03 0.02 0.03 0.03 0.03 0.03 0.04 0.02 0.01 0.01 0.00 0.01 0.01 0.01 0.00 0.00 0.01 0.01 0.01 0.01 0.01 0.01 0.01 0.01 0.00 0.00
0.00 0.00 0.00 0.00 0.00 0.00 0.00 0.00 0.01 0.01 0.01 0.01 0.01 0.01 0.00 0.01 0.02 0.02 0.02 0.02 0.03 0.04 0.05 0.05 0.05 0.06 0.06 0.04 0.03 0.04 0.03 0.02 0.01 0.01 0.01 0.01 0.01 0.01 0.01 0.01 0.01 0.01 0.01 0.01 0.01 0.01 0.01 0.01 0.01
0.00 0.00 0.00 0.00 0.00 0.00 0.00 0.00 0.01 0.00 0.00 0.01 0.01 0.00 0.01 0.02 0.02 0.02 0.02 0.03 0.04 0.04 0.06 0.06 0.06 0.06 0.05 0.04 0.04 0.04 0.03 0.02 0.02 0.02 0.02 0.03 0.02 0.02 0.02 0.02 0.02 0.02 0.02 0.02 0.02 0.01 0.01 0.01 0.01
0.00 0.00 0.00 0.00 0.00 0.00 0.00 0.01 0.01 0.01 0.01 0.01 0.01 0.01 0.02 0.03 0.03 0.03 0.03 0.04 0.05 0.05 0.06 0.06 0.03 0.03 0.05 0.05 0.06 0.06 0.05 0.04 0.04 0.04 0.04 0.03 0.02 0.02 0.02 0.02 0.02 0.03 0.03 0.02 0.03 0.03 0.03 0.02 0.02
0.00 0.00 0.00 0.00 0.00 0.01 0.01 0.01 0.01 0.01 0.01 0.01 0.01 0.01 0.02 0.04 0.03 0.04 0.04 0.04 0.05 0.07 0.07 0.06 0.06 0.05 0.04 0.05 0.05 0.04 0.04 0.03 0.03 0.03 0.03 0.03 0.03 0.03 0.03 0.03 0.03 0.03 0.02 0.03 0.04 0.04 0.04 0.03 0.02
0.00 0.00 0.00 0.00 0.00 0.01 0.01 0.01 0.01 0.01 0.01 0.01 0.01 0.01 0.02 0.03 0.03 0.03 0.05 0.07 0.10 0.10 0.07 0.05 0.06 0.06 0.04 0.04 0.03 0.03 0.03 0.03 0.02 0.03 0.04 0.03 0.03 0.03 0.03 0.03 0.03 0.03 0.04 0.03 0.03 0.05 0.04 0.03 0.03
0.00 0.00 0.00 0.00 0.00 0.00 0.00 0.01 0.00 0.01 0.01 0.03 0.03 0.02 0.01 0.01 0.02 0.06 0.10 0.10 0.08 0.07 0.05 0.03 0.03 0.04 0.03 0.02 0.01 0.02 0.01 0.02 0.02 0.03 0.03 0.03 0.03 0.03 0.03 0.04 0.04 0.03 0.04 0.04 0.04 0.03 0.03 0.03 0.03
0.00 0.00 0.00 0.00 0.00 0.00 0.01 0.01 0.01 0.01 0.01 0.02 0.02 0.02 0.03 0.02 0.01 0.02 0.04 0.04 0.03 0.03 0.02 0.02 0.02 0.02 0.02 0.01 0.01 0.02 0.01 0.01 0.02 0.03 0.04 0.05 0.04 0.04 0.04 0.04 0.03 0.02 0.02 0.02 0.03 0.04 0.03 0.03 0.04
0.00 0.00 0.00 0.00 0.00 0.00 0.01 0.01 0.01 0.01 0.01 0.01 0.01 0.02 0.04 0.04 0.02 0.01 0.02 0.02 0.02 0.02 0.01 0.02 0.02 0.02 0.02 0.02 0.01 0.01 0.02 0.02 0.03 0.03 0.03 0.05 0.04 0.04 0.04 0.04 0.03 0.04 0.04 0.05 0.04 0.04 0.03 0.03 0.05
0.00 0.00 0.00 0.00 0.00 0.01 0.01 0.01 0.01 0.01 0.01 0.00 0.00 0.01 0.03 0.04 0.03 0.03 0.02 0.04 0.04 0.03 0.02 0.03 0.03 0.02 0.02 0.02 0.03 0.02 0.02 0.02 0.03 0.03 0.03 0.05 0.06 0.06 0.06 0.06 0.05 0.06 0.06 0.07 0.06 0.06 0.05 0.04 0.04
0.00 0.00 0.00 0.00 0.00 0.01 0.01 0.01 0.01 0.01 0.02 0.01 0.01 0.01 0.02 0.03 0.04 0.04 0.05 0.05 0.06 0.04 0.03 0.03 0.03 0.03 0.03 0.04 0.04 0.03 0.03 0.04 0.05 0.05 0.05 0.06 0.07 0.07 0.08 0.08 0.08 0.08 0.08 0.07 0.07 0.06 0.06 0.05 0.04
0.00 0.00 0.00 0.01 0.01 0.01 0.01 0.01 0.00 0.02 0.02 0.02 0.03 0.03 0.02 0.03 0.04 0.05 0.06 0.05 0.04 0.04 0.04 0.03 0.03 0.04 0.05 0.05 0.04 0.04 0.04 0.04 0.04 0.04 0.05 0.05 0.07 0.07 0.07 0.08 0.09 0.10 0.09 0.08 0.07 0.06 0.05 0.05 0.04
0.00 0.00 0.01 0.01 0.02 0.01 0.01 0.01 0.01 0.02 0.02 0.03 0.03 0.03 0.03 0.03 0.04 0.06 0.05 0.04 0.05 0.06 0.06 0.06 0.06 0.06 0.06 0.05 0.03 0.03 0.04 0.04 0.03 0.03 0.04 0.05 0.06 0.06 0.06 0.05 0.07 0.08 0.08 0.06 0.06 0.06 0.06 0.05 0.04
0.00 0.00 0.01 0.01 0.01 0.02 0.02 0.03 0.03 0.02 0.03 0.03 0.03 0.03 0.03 0.04 0.06 0.05 0.05 0.06 0.07 0.07 0.08 0.08 0.07 0.06 0.05 0.05 0.05 0.05 0.05 0.04 0.04 0.03 0.03 0.03 0.05 0.05 0.06 0.07 0.07 0.06 0.05 0.04 0.04 0.05 0.06 0.05 0.05
0.01 0.01 0.01 0.01 0.02 0.02 0.02 0.03 0.06 0.06 0.05 0.04 0.03 0.03 0.04 0.04 0.04 0.04 0.05 0.07 0.08 0.08 0.07 0.06 0.06 0.05 0.06 0.07 0.08 0.08 0.06 0.05 0.04 0.02 0.02 0.04 0.05 0.05 0.05 0.06 0.05 0.04 0.04 0.04 0.03 0.04 0.04 0.05 0.05
0.01 0.01 0.01 0.01 0.01 0.02 0.02 0.02 0.04 0.07 0.07 0.05 0.04 0.04 0.04 0.03 0.03 0.03 0.04 0.06 0.07 0.08 0.07 0.05 0.05 0.05 0.06 0.06 0.06 0.06 0.06 0.05 0.04 0.03 0.03 0.03 0.02 0.03 0.04 0.04 0.03 0.03 0.03 0.03 0.04 0.03 0.03 0.04 0.04
0.01 0.01 0.01 0.00 0.00 0.01 0.01 0.01 0.02 0.04 0.05 0.04 0.04 0.03 0.04 0.05 0.05 0.04 0.04 0.06 0.06 0.06 0.05 0.05 0.05 0.05 0.05 0.05 0.05 0.04 0.05 0.04 0.03 0.02 0.02 0.02 0.01 0.02 0.03 0.04 0.04 0.04 0.04 0.04 0.04 0.04 0.03 0.03 0.02
0.01 0.01 0.01 0.01 0.01 0.01 0.01 0.01 0.02 0.03 0.03 0.03 0.02 0.02 0.03 0.05 0.06 0.06 0.06 0.06 0.06 0.06 0.05 0.05 0.07 0.09 0.06 0.06 0.06 0.05 0.05 0.05 0.03 0.02 0.02 0.02 0.01 0.01 0.02 0.03 0.03 0.03 0.03 0.04 0.04 0.03 0.03 0.02 0.02
0.00 0.00 0.01 0.03 0.03 0.02 0.02 0.03 0.03 0.02 0.02 0.02 0.02 0.03 0.04 0.04 0.04 0.05 0.05 0.05 0.05 0.06 0.05 0.06 0.06 0.06 0.05 0.05 0.07 0.08 0.08 0.07 0.04 0.03 0.03 0.02 0.02 0.01 0.01 0.01 0.02 0.02 0.03 0.03 0.04 0.03 0.03 0.03 0.03
0.00 0.00 0.01 0.02 0.05 0.05 0.03 0.04 0.02 0.02 0.02 0.02 0.02 0.02 0.03 0.04 0.03 0.03 0.03 0.04 0.05 0.07 0.07 0.05 0.05 0.05 0.04 0.05 0.06 0.07 0.08 0.07 0.06 0.04 0.02 0.02 0.01 0.01 0.01 0.01 0.01 0.01 0.02 0.03 0.03 0.02 0.04 0.05 0.04
0.00 0.00 0.00 0.01 0.04 0.04 0.02 0.02 0.01 0.02 0.02 0.01 0.01 0.01 0.02 0.03 0.04 0.03 0.03 0.05 0.07 0.07 0.07 0.06 0.05 0.05 0.05 0.05 0.05 0.04 0.04 0.04 0.03 0.03 0.02 0.02 0.01 0.01 0.01 0.00 0.00 0.01 0.02 0.02 0.03 0.03 0.04 0.05 0.06
0.00 0.00 0.00 0.00 0.02 0.02 0.02 0.01 0.01 0.01 0.01 0.01 0.01 0.01 0.02 0.02 0.03 0.03 0.06 0.09 0.10 0.09 0.10 0.07 0.05 0.04 0.05 0.05 0.04 0.03 0.03 0.03 0.03 0.03 0.03 0.02 0.02 0.01 0.01 0.01 0.01 0.01 0.02 0.02 0.03 0.03 0.03 0.04 0.05
0.00 0.01 0.02 0.01 0.02 0.02 0.00 0.01 0.01 0.00 0.00 0.01 0.01 0.01 0.01 0.01 0.02 0.03 0.05 0.09 0.10 0.09 0.08 0.06 0.05 0.04 0.04 0.04 0.04 0.03 0.03 0.04 0.04 0.04 0.03 0.02 0.02 0.02 0.02 0.02 0.02 0.02 0.02 0.02 0.03 0.04 0.04 0.05 0.05
0.00 0.00 0.01 0.01 0.01 0.02 0.00 0.01 0.01 0.00 0.00 0.00 0.00 0.00 0.01 0.02 0.01 0.03 0.06 0.08 0.08 0.08 0.07 0.05 0.05 0.05 0.04 0.03 0.03 0.04 0.04 0.04 0.04 0.04 0.02 0.02 0.02 0.03 0.03 0.03 0.03 0.02 0.02 0.02 0.02 0.03 0.03 0.04 0.05
0.01 0.00 0.00 0.01 0.00 0.01 0.01 0.00 0.01 0.00 0.00 0.00 0.00 0.00 0.01 0.01 0.01 0.02 0.05 0.06 0.06 0.06 0.06 0.07 0.07 0.06 0.05 0.05 0.05 0.06 0.06 0.06 0.07 0.06 0.03 0.02 0.02 0.02 0.02 0.02 0.03 0.02 0.02 0.02 0.02 0.03 0.03 0.04 0.04
0.00 0.00 0.00 0.01 0.01 0.01 0.01 0.01 0.00 0.00 0.00 0.00 0.00 0.00 0.01 0.01 0.01 0.02 0.03 0.03 0.03 0.04 0.06 0.07 0.07 0.07 0.06 0.05 0.06 0.07 0.08 0.08 0.07 0.05 0.04 0.03 0.03 0.02 0.03 0.03 0.02 0.01 0.01 0.02 0.02 0.03 0.03 0.03 0.04
0.01 0.00 0.00 0.01 0.01 0.01 0.01 0.01 0.00 0.00 0.00 0.00 0.00 0.00 0.01 0.02 0.02 0.02 0.03 0.02 0.03 0.03 0.03 0.04 0.04 0.04 0.04 0.04 0.04 0.06 0.07 0.07 0.06 0.04 0.04 0.03 0.02 0.02 0.03 0.02 0.01 0.01 0.02 0.02 0.03 0.03 0.04 0.05 0.04
0.01 0.01 0.01 0.01 0.01 0.00 0.01 0.01 0.01 0.00 0.00 0.00 0.01 0.01 0.01 0.02 0.02 0.03 0.04 0.03 0.03 0.02 0.02 0.02 0.02 0.02 0.03 0.04 0.04 0.05 0.05 0.05 0.04 0.03 0.03 0.02 0.03 0.03 0.02 0.02 0.02 0.02 0.02 0.02 0.03 0.04 0.04 0.04 0.05
MSLP
1012.51 1012.84 1013.22 1013.55 1013.75 1013.77 1013.61 1013.32 1012.99 1012.71 1012.55 1012.54 1012.68 1012.91 1013.16 1013.36 1013.46 1013.46 1013.41 1013.38 1013.44 1013.67 1014.07 1014.64 1015.30 1015.96 1016.52 1016.92 1017.14 1017.19 1017.15 1017.10 1017.10 1017.22 1017.45 1017.77 1018.11 1018.43 1018.65 1018.76 1018.77 1018.72 1018.64 1018.60 1018.61 1018.69 1018.81 1018.93 1019.02
1012.36 1012.70 1013.04 1013.31 1013.44 1013.40 1013.20 1012.91 1012.59 1012.35 1012.23 1012.27 1012.43 1012.66 1012.89 1013.07 1013.16 1013.16 1013.14 1013.16 1013.31 1013.63 1014.14 1014.79 1015.52 1016.23 1016.82 1017.22 1017.44 1017.49 1017.45 1017.40 1017.41 1017.52 1017.74 1018.03 1018.33 1018.59 1018.75 1018.81 1018.78 1018.70 1018.63 1018.61 1018.67 1018.80 1018.96 1019.12 1019.22
1012.31 1012.61 1012.90 1013.08 1013.12 1013.02 1012.79 1012.50 1012.24 1012.07 1012.05 1012.17 1012.39 1012.66 1012.90 1013.07 1013.14 1013.13 1013.11 1013.16 1013.34 1013.71 1014.27 1014.96 1015.72 1016.44 1017.04 1017.45 1017.67 1017.73 1017.71 1017.67 1017.70 1017.82 1018.03 1018.29 1018.55 1018.75 1018.86 1018.86 1018.79 1018.70 1018.63 1018.65 1018.75 1018.93 1019.13 1019.30 1019.39
1012.36 1012.62 1012.81 1012.90 1012.84 1012.67 1012.42 1012.17 1011.99 1011.94 1012.04 1012.28 1012.60 1012.93 1013.20 1013.37 1013.42 1013.38 1013.34 1013.37 1013.54 1013.90 1014.45 1015.15 1015.89 1016.59 1017.17 1017.58 1017.80 1017.88 1017.89 1017.88 1017.94 1018.07 1018.28 1018.53 1018.75 1018.90 1018.95 1018.92 1018.82 1018.73 1018.68 1018.73 1018.86 1019.07 1019.30 1019.47 1019.54
1012.50 1012.68 1012.78 1012.75 1012.61 1012.39 1012.14 1011.94 1011.87 1011.96 1012.21 1012.59 1013.02 1013.43 1013.74 1013.91 1013.93 1013.86 1013.77 1013.75 1013.88 1014.19 1014.69 1015.33 1016.03 1016.68 1017.23 1017.61 1017.83 1017.93 1017.96 1018.00 1018.08 1018.24 1018.45 1018.68 1018.88 1019.00 1019.03 1018.97 1018.87 1018.78 1018.75 1018.82 1018.98 1019.20 1019.43 1019.59 1019.63
1012.66 1012.76 1012.75 1012.63 1012.41 1012.15 1011.91 1011.79 1011.83 1012.06 1012.47 1012.99 1013.53 1014.02 1014.37 1014.55 1014.56 1014.45 1014.31 1014.23 1014.29 1014.53 1014.95 1015.51 1016.13 1016.72 1017.21 1017.56 1017.78 1017.88 1017.94 1018.00 1018.12 1018.29 1018.51 1018.74 1018.92 1019.03 1019.04 1018.98 1018.89 1018.81 1018.80 1018.89 1019.06 1019.28 1019.49 1019.62 1019.61
1012.76 1012.77 1012.67 1012.46 1012.18 1011.90 1011.70 1011.65 1011.80 1012.17 1012.71 1013.35 1014.00 1014.56 1014.95 1015.15 1015.15 1015.02 1014.84 1014.71 1014.70 1014.87 1015.21 1015.68 1016.21 1016.72 1017.15 1017.47 1017.66 1017.76 1017.83 1017.91 1018.04 1018.23 1018.45 1018.67 1018.85 1018.95 1018.97 1018.92 1018.84 1018.79 1018.80 1018.89 1019.06 1019.26 1019.44 1019.52 1019.48
1012.74 1012.68 1012.50 1012.22 1011.90 1011.62 1011.46 1011.48 1011.72 1012.19 1012.82 1013.55 1014.28 1014.89 1015.33 1015.55 1015.57 1015.44 1015.25 1015.10 1015.06 1015.17 1015.44 1015.83 1016.28 1016.72 1017.08 1017.35 1017.51 1017.60 1017.67 1017.75 1017.88 1018.06 1018.28 1018.49 1018.67 1018.77 1018.80 1018.77 1018.72 1018.69 1018.71 1018.80 1018.95 1019.13 1019.26 1019.31 1019.23
1012.60 1012.47 1012.22 1011.91 1011.57 1011.31 1011.18 1011.25 1011.55 1012.08 1012.77 1013.55 1014.31 1014.96 1015.43 1015.69 1015.74 1015.66 1015.50 1015.37 1015.34 1015.43 1015.66 1015.99 1016.37 1016.74 1017.04 1017.26 1017.38 1017.45 1017.49 1017.56 1017.68 1017.84 1018.04 1018.24 1018.40 1018.51 1018.55 1018.54 1018.51 1018.50 1018.54 1018.62 1018.75 1018.89 1018.99 1019.00 1018.90
1012.37 1012.18 1011.90 1011.57 1011.24 1010.99 1010.90 1011.01 1011.33 1011.88 1012.57 1013.35 1014.10 1014.76 1015.26 1015.56 1015.68 1015.67 1015.60 1015.53 1015.54 1015.65 1015.87 1016.16 1016.49 1016.80 1017.04 1017.21 1017.29 1017.33 1017.35 1017.39 1017.48 1017.62 1017.79 1017.96 1018.11 1018.21 1018.26 1018.27 1018.26 1018.26 1018.30 1018.38 1018.49 1018.59 1018.66 1018.64 1018.52
1012.10 1011.89 1011.60 1011.28 1010.98 1010.77 1010.70 1010.82 1011.15 1011.66 1012.31 1013.04 1013.76 1014.40 1014.91 1015.27 1015.47 1015.56 1015.59 1015.62 1015.70 1015.86 1016.08 1016.36 1016.65 1016.91 1017.10 1017.21 1017.26 1017.26 1017.26 1017.27 1017.33 1017.43 1017.57 1017.71 1017.84 1017.94 1017.99 1018.00 1018.00 1018.01 1018.05 1018.11 1018.20 1018.28 1018.31 1018.28 1018.16
1011.89 1011.67 1011.40 1011.12 1010.87 1010.70 1010.67 1010.79 1011.08 1011.53 1012.11 1012.75 1013.40 1014.01 1014.52 1014.92 1015.21 1015.41 1015.56 1015.71 1015.87 1016.08 1016.32 1016.59 1016.84 1017.05 1017.20 1017.27 1017.28 1017.26 1017.23 1017.22 1017.25 1017.33 1017.43 1017.54 1017.65 1017.72 1017.76 1017.77 1017.77 1017.78 1017.81 1017.87 1017.93 1017.99 1018.00 1017.95 1017.84
1011.77 1011.58 1011.35 1011.14 1010.96 1010.85 1010.85 1010.97 1011.21 1011.59 1012.06 1012.60 1013.16 1013.71 1014.22 1014.66 1015.03 1015.33 1015.59 1015.83 1016.08 1016.33 1016.58 1016.83 1017.04 1017.21 1017.31 1017.35 1017.34 1017.31 1017.27 1017.25 1017.27 1017.32 1017.39 1017.48 1017.55 1017.60 1017.62 1017.62 1017.61 1017.61 1017.63 1017.66 1017.71 1017.75 1017.75 1017.69 1017.58
1011.75 1011.61 1011.46 1011.33 1011.24 1011.20 1011.24 1011.36 1011.57 1011.86 1012.23 1012.66 1013.13 1013.62 1014.10 1014.57 1014.99 1015.38 1015.73 1016.04 1016.34 1016.61 1016.85 1017.07 1017.23 1017.35 1017.42 1017.44 1017.42 1017.39 1017.36 1017.35 1017.36 1017.40 1017.46 1017.52 1017.56 1017.58 1017.58 1017.56 1017.53 1017.51 1017.50 1017.52 1017.54 1017.56 1017.54 1017.48 1017.37
1011.81 1011.73 1011.66 1011.63 1011.64 1011.69 1011.77 1011.90 1012.07 1012.29 1012.56 1012.90 1013.28 1013.71 1014.18 1014.65 1015.12 1015.56 1015.96 1016.32 1016.63 1016.89 1017.11 1017.27 1017.39 1017.46 1017.50 1017.51 1017.50 1017.48 1017.48 1017.49 1017.52 1017.57 1017.62 1017.65 1017.67 1017.66 1017.62 1017.57 1017.51 1017.47 1017.44 1017.43 1017.43 1017.42 1017.39 1017.31 1017.19
1011.87 1011.85 1011.87 1011.94 1012.05 1012.18 1012.31 1012.46 1012.60 1012.77 1012.97 1013.22 1013.54 1013.93 1014.37 1014.86 1015.35 1015.82 1016.25 1016.62 1016.93 1017.15 1017.32 1017.43 1017.49 1017.52 1017.54 1017.55 1017.56 1017.59 1017.62 1017.67 1017.73 1017.79 1017.83 1017.85 1017.84 1017.79 1017.73 1017.64 1017.56 1017.48 1017.42 1017.38 1017.35 1017.32 1017.26 1017.17 1017.03
1011.87 1011.90 1012.00 1012.16 1012.36 1012.56 1012.74 1012.90 1013.03 1013.16 1013.31 1013.51 1013.78 1014.14 1014.58 1015.08 1015.59 1016.09 1016.54 1016.91 1017.19 1017.38 1017.49 1017.54 1017.56 1017.56 1017.57 1017.60 1017.64 1017.71 1017.79 1017.89 1017.97 1018.04 1018.08 1018.08 1018.05 1017.98 1017.88 1017.77 1017.65 1017.55 1017.46 1017.39 1017.33 1017.26 1017.18 1017.06 1016.90
1011.76 1011.84 1012.01 1012.24 1012.50 1012.75 1012.97 1013.13 1013.25 1013.34 1013.45 1013.62 1013.88 1014.24 1014.69 1015.22 1015.77 1016.30 1016.76 1017.13 1017.39 1017.55 1017.62 1017.63 1017.62 1017.61 1017.62 1017.67 1017.76 1017.87 1018.00 1018.13 1018.24 1018.32 1018.35 1018.34 1018.28 1018.19 1018.07 1017.93 1017.80 1017.67 1017.56 1017.47 1017.37 1017.27 1017.15 1017.00 1016.81
1011.57 1011.68 1011.90 1012.17 1012.47 1012.75 1012.96 1013.11 1013.20 1013.26 1013.35 1013.50 1013.75 1014.14 1014.63 1015.20 1015.81 1016.39 1016.89 1017.29 1017.55 1017.70 1017.76 1017.75 1017.72 1017.71 1017.74 1017.82 1017.94 1018.10 1018.26 1018.42 1018.54 1018.62 1018.64 1018.62 1018.54 1018.43 1018.29 1018.15 1018.00 1017.87 1017.74 1017.62 1017.50 1017.37 1017.21 1017.02 1016.80
1011.34 1011.49 1011.72 1012.02 1012.33 1012.60 1012.79 1012.90 1012.94 1012.95 1013.00 1013.15 1013.41 1013.83 1014.39 1015.03 1015.72 1016.38 1016.95 1017.40 1017.71 1017.87 1017.94 1017.94 1017.92 1017.92 1017.97 1018.07 1018.22 1018.39 1018.58 1018.74 1018.87 1018.94 1018.95 1018.90 1018.81 1018.69 1018.55 1018.41 1018.27 1018.13 1018.00 1017.87 1017.73 1017.57 1017.37 1017.14 1016.88
1011.16 1011.33 1011.59 1011.90 1012.19 1012.42 1012.55 1012.59 1012.56 1012.51 1012.52 1012.65 1012.94 1013.40 1014.03 1014.77 1015.56 1016.33 1017.00 1017.53 1017.90 1018.12 1018.22 1018.24 1018.24 1018.26 1018.31 1018.43 1018.58 1018.77 1018.95 1019.11 1019.22 1019.27 1019.26 1019.20 1019.10 1018.97 1018.84 1018.70 1018.58 1018.45 1018.33 1018.19 1018.04 1017.85 1017.62 1017.35 1017.05
1011.09 1011.30 1011.59 1011.89 1012.15 1012.33 1012.38 1012.33 1012.21 1012.09 1012.05 1012.15 1012.45 1012.97 1013.68 1014.53 1015.44 1016.32 1017.11 1017.74 1018.20 1018.49 1018.63 1018.69 1018.70 1018.72 1018.77 1018.88 1019.02 1019.19 1019.35 1019.48 1019.56 1019.59 1019.56 1019.48 1019.38 1019.25 1019.12 1019.01 1018.90 1018.79 1018.68 1018.55 1018.38 1018.18 1017.92 1017.61 1017.27
1011.16 1011.43 1011.75 1012.05 1012.28 1012.40 1012.37 1012.23 1012.02 1011.82 1011.72 1011.80 1012.12 1012.68 1013.47 1014.41 1015.44 1016.45 1017.35 1018.09 1018.63 1018.98 1019.17 1019.25 1019.26 1019.27 1019.30 1019.36 1019.47 1019.60 1019.72 1019.82 1019.87 1019.87 1019.82 1019.73 1019.62 1019.49 1019.38 1019.27 1019.18 1019.09 1018.99 1018.86 1018.69 1018.47 1018.20 1017.86 1017.49
1011.36 1011.70 1012.06 1012.37 1012.58 1012.64 1012.55 1012.33 1012.04 1011.78 1011.64 1011.71 1012.03 1012.64 1013.49 1014.52 1015.65 1016.76 1017.76 1018.58 1019.19 1019.59 1019.80 1019.87 1019.87 1019.83 1019.81 1019.83 1019.88 1019.95 1020.03 1020.08 1020.10 1020.08 1020.01 1019.91 1019.79 1019.66 1019.55 1019.45 1019.36 1019.28 1019.19 1019.07 1018.90 1018.67 1018.38 1018.03 1017.64
1011.63 1012.04 1012.44 1012.77 1012.97 1013.01 1012.87 1012.60 1012.27 1011.98 1011.82 1011.89 1012.24 1012.88 1013.79 1014.88 1016.07 1017.25 1018.31 1019.19 1019.83 1020.25 1020.45 1020.50 1020.44 1020.35 1020.25 1020.19 1020.18 1020.19 1020.21 1020.23 1020.23 1020.19 1020.11 1020.00 1019.87 1019.74 1019.61 1019.50 1019.41 1019.32 1019.23 1019.10 1018.94 1018.71 1018.42 1018.07 1017.66
1011.89 1012.34 1012.78 1013.14 1013.34 1013.38 1013.24 1012.97 1012.64 1012.36 1012.23 1012.32 1012.70 1013.38 1014.32 1015.45 1016.67 1017.88 1018.96 1019.84 1020.48 1020.87 1021.03 1021.03 1020.90 1020.73 1020.55 1020.42 1020.33 1020.28 1020.26 1020.26 1020.23 1020.19 1020.10 1019.99 1019.85 1019.70 1019.55 1019.42 1019.30 1019.19 1019.08 1018.95 1018.78 1018.57 1018.29 1017.94 1017.54
1012.05 1012.53 1012.99 1013.35 1013.58 1013.63 1013.52 1013.30 1013.03 1012.81 1012.74 1012.90 1013.33 1014.04 1015.00 1016.14 1017.35 1018.53 1019.58 1020.43 1021.03 1021.36 1021.47 1021.39 1021.19 1020.94 1020.69 1020.47 1020.32 1020.23 1020.18 1020.16 1020.14 1020.09 1020.01 1019.89 1019.74 1019.57 1019.39 1019.22 1019.06 1018.91 1018.77 1018.63 1018.46 1018.26 1018.00 1017.67 1017.28
1012.09 1012.55 1012.99 1013.35 1013.58 1013.67 1013.62 1013.49 1013.32 1013.21 1013.25 1013.49 1013.99 1014.73 1015.70 1016.81 1017.98 1019.10 1020.08 1020.86 1021.38 1021.65 1021.69 1021.54 1021.28 1020.96 1020.65 1020.38 1020.19 1020.07 1020.01 1019.99 1019.98 1019.94 1019.87 1019.76 1019.59 1019.39 1019.17 1018.94 1018.72 1018.53 1018.35 1018.19 1018.02 1017.83 1017.60 1017.30 1016.94
1011.99 1012.39 1012.77 1013.09 1013.32 1013.44 1013.48 1013.45 1013.42 1013.46 1013.63 1013.99 1014.55 1015.33 1016.28 1017.34 1018.44 1019.47 1020.36 1021.04 1021.48 1021.69 1021.67 1021.47 1021.17 1020.81 1020.47 1020.19 1019.98 1019.85 1019.80 1019.79 1019.80 1019.79 1019.73 1019.62 1019.44 1019.21 1018.94 1018.66 1018.38 1018.12 1017.90 1017.71 1017.53 1017.35 1017.15 1016.88 1016.55
1011.82 1012.11 1012.39 1012.64 1012.84 1012.99 1013.10 1013.19 1013.32 1013.51 1013.83 1014.30 1014.94 1015.74 1016.67 1017.66 1018.66 1019.58 1020.36 1020.95 1021.32 1021.47 1021.42 1021.22 1020.91 1020.56 1020.23 1019.95 1019.76 1019.65 1019.61 1019.63 1019.66 1019.67 1019.63 1019.52 1019.33 1019.07 1018.76 1018.41 1018.07 1017.76 1017.48 1017.25 1017.06 1016.88 1016.69 1016.46 1016.16
Thickness
5797 5804 5809 5808 5801 5797 5793 5799 5804 5803 5805 5813 5814 5810 5802 5796 5790 5779 5795 5803 5800 5795 5787 5778 5774 5772 5770 5769 5767 5764 5762 5760 5757 5755 5753 5751 5749 5747 5745 5745 5744 5743 5741 5740 5740 5739 5739 5738 5737
5800 5804 5804 5803 5793 5785 5790 5801 5800 5803 5808 5812 5810 5805 5799 5794 5796 5794 5797 5798 5796 5791 5784 5778 5771 5769 5767 5765 5763 5760 5758 5756 5754 5752 5749 5747 5746 5744 5742 5741 5741 5740 5739 5738 5737 5736 5735 5735 5734
5799 5802 5799 5797 5789 5790 5792 5799 5800 5805 5809 5807 5802 5803 5796 5789 5792 5793 5796 5795 5791 5786 5781 5774 5768 5765 5763 5761 5759 5757 5755 5752 5750 5748 5746 5744 5742 5741 5739 5738 5737 5737 5735 5735 5734 5733 5732 5731 5731
5798 5796 5796 5789 5784 5795 5798 5800 5802 5800 5802 5805 5801 5793 5793 5793 5795 5795 5794 5792 5787 5782 5778 5770 5765 5762 5759 5756 5754 5752 5751 5748 5746 5744 5742 5740 5739 5737 5736 5735 5734 5733 5732 5731 5731 5729 5729 5728 5727
5796 5793 5783 5780 5785 5794 5799 5802 5802 5798 5797 5799 5798 5788 5783 5790 5796 5793 5790 5787 5783 5779 5774 5767 5761 5758 5755 5753 5750 5748 5746 5744 5742 5740 5738 5737 5735 5734 5732 5731 5731 5730 5729 5728 5727 5726 5725 5725 5724
5787 5788 5777 5775 5781 5789 5795 5800 5800 5798 5797 5798 5795 5787 5780 5786 5788 5786 5786 5783 5779 5775 5770 5763 5756 5754 5751 5749 5746 5744 5742 5740 5738 5736 5734 5733 5731 5730 5729 5728 5727 5726 5725 5724 5723 5722 5722 5722 5721
5782 5781 5778 5782 5779 5781 5788 5798 5797 5796 5793 5794 5798 5784 5777 5779 5782 5783 5782 5779 5776 5771 5766 5761 5755 5750 5747 5744 5742 5740 5738 5736 5734 5732 5730 5729 5727 5726 5725 5724 5723 5722 5721 5720 5719 5719 5718 5718 5718
5788 5783 5777 5779 5776 5778 5789 5794 5797 5795 5791 5797 5797 5782 5774 5775 5779 5778 5776 5773 5770 5766 5762 5758 5754 5750 5746 5742 5738 5736 5734 5732 5730 5728 5726 5725 5723 5722 5721 5720 5718 5717 5717 5716 5716 5715 5714 5714 5714
5783 5774 5771 5777 5778 5780 5788 5787 5791 5797 5791 5789 5791 5788 5784 5779 5775 5771 5767 5764 5762 5759 5756 5754 5751 5747 5745 5742 5736 5733 5730 5728 5726 5725 5723 5721 5722 5721 5718 5717 5714 5713 5712 5712 5711 5711 5711 5711 5711
5775 5770 5775 5784 5788 5785 5785 5785 5786 5785 5780 5778 5778 5780 5779 5774 5770 5765 5762 5757 5755 5752 5750 5749 5746 5743 5742 5739 5734 5731 5729 5726 5725 5723 5721 5720 5719 5718 5716 5712 5710 5709 5708 5708 5707 5707 5707 5708 5712
5774 5772 5777 5781 5785 5785 5782 5782 5786 5780 5774 5777 5774 5772 5772 5769 5765 5762 5759 5756 5753 5750 5746 5744 5742 5738 5737 5734 5731 5729 5727 5724 5722 5720 5718 5716 5715 5714 5712 5711 5709 5707 5706 5706 5705 5706 5707 5708 5709
5768 5770 5774 5777 5780 5779 5778 5779 5778 5777 5777 5781 5780 5775 5769 5764 5762 5759 5756 5753 5750 5746 5741 5739 5736 5733 5731 5729 5727 5724 5723 5720 5719 5716 5714 5713 5711 5710 5708 5706 5706 5705 5704 5702 5702 5702 5702 5702 5703
5762 5764 5769 5774 5776 5777 5775 5773 5772 5772 5776 5778 5775 5770 5766 5762 5759 5757 5754 5750 5745 5740 5737 5734 5731 5728 5725 5722 5721 5720 5717 5716 5714 5711 5708 5707 5707 5705 5704 5701 5699 5700 5699 5698 5697 5697 5696 5696 5698
5762 5762 5763 5768 5770 5770 5767 5767 5766 5765 5771 5769 5766 5763 5762 5759 5756 5751 5747 5743 5739 5735 5732 5729 5726 5722 5719 5717 5715 5714 5712 5709 5708 5705 5703 5701 5700 5698 5697 5696 5694 5694 5693 5693 5691 5691 5690 5691 5691
5761 5755 5755 5761 5764 5766 5765 5755 5759 5764 5765 5761 5759 5757 5755 5753 5751 5746 5743 5739 5735 5731 5727 5723 5721 5717 5714 5712 5710 5708 5706 5704 5702 5699 5697 5695 5693 5692 5691 5691 5690 5688 5687 5686 5686 5685 5685 5685 5686
5755 5751 5747 5754 5760 5761 5757 5747 5756 5760 5759 5754 5753 5751 5748 5746 5745 5743 5740 5735 5731 5728 5723 5720 5718 5713 5709 5707 5704 5703 5701 5698 5696 5694 5691 5689 5687 5685 5684 5684 5683 5681 5681 5681 5680 5679 5679 5679 5679
5746 5745 5745 5747 5757 5758 5755 5748 5751 5756 5753 5749 5748 5747 5743 5740 5739 5738 5736 5731 5727 5724 5719 5715 5712 5708 5705 5701 5698 5696 5694 5692 5690 5688 5685 5682 5681 5680 5679 5677 5675 5675 5675 5674 5673 5673 5671 5670 5670
5739 5744 5742 5744 5751 5751 5749 5747 5749 5750 5749 5746 5746 5744 5740 5736 5734 5733 5730 5727 5723 5719 5715 5710 5706 5703 5699 5696 5693 5690 5688 5686 5683 5681 5678 5676 5675 5673 5672 5672 5669 5669 5668 5666 5664 5662 5661 5661 5661
5744 5741 5738 5742 5749 5746 5743 5743 5745 5746 5745 5743 5742 5740 5736 5733 5732 5729 5725 5722 5717 5713 5708 5705 5702 5698 5694 5691 5688 5685 5682 5680 5677 5674 5671 5669 5668 5666 5665 5665 5663 5662 5661 5658 5657 5656 5655 5654 5654
5738 5734 5734 5737 5741 5739 5738 5738 5744 5744 5743 5742 5739 5736 5733 5729 5727 5723 5720 5716 5712 5708 5704 5700 5696 5694 5690 5687 5683 5680 5676 5674 5671 5668 5664 5662 5661 5659 5659 5657 5657 5654 5652 5650 5649 5647 5648 5648 5647
5734 5734 5734 5731 5733 5736 5732 5729 5737 5742 5742 5741 5740 5738 5734 5729 5724 5720 5716 5712 5709 5704 5700 5697 5692 5688 5685 5682 5679 5675 5671 5667 5665 5661 5659 5656 5654 5652 5650 5649 5648 5646 5646 5644 5641 5640 5639 5640 5641
5729 5739 5736 5731 5727 5729 5729 5721 5734 5738 5734 5733 5733 5733 5731 5728 5723 5719 5714 5709 5705 5700 5696 5692 5687 5683 5679 5676 5674 5670 5666 5661 5657 5655 5653 5650 5647 5645 5643 5641 5639 5638 5638 5635 5635 5634 5633 5632 5633
5733 5737 5734 5731 5728 5725 5728 5720 5732 5737 5730 5731 5732 5730 5729 5726 5721 5715 5711 5706 5701 5696 5691 5686 5681 5677 5673 5670 5667 5663 5660 5656 5653 5650 5646 5644 5642 5639 5636 5634 5631 5630 5629 5627 5625 5625 5625 5625 5625
5735 5732 5730 5729 5727 5711 5725 5719 5723 5735 5734 5734 5732 5728 5724 5721 5716 5711 5706 5701 5695 5691 5685 5681 5675 5671 5667 5664 5661 5657 5653 5649 5646 5643 5640 5638 5636 5633 5629 5627 5624 5622 5621 5619 5618 5617 5618 5617 5616
5729 5719 5707 5706 5708 5714 5730 5719 5725 5738 5738 5734 5729 5723 5720 5716 5710 5704 5700 5695 5690 5685 5679 5674 5670 5665 5661 5658 5654 5651 5647 5643 5640 5637 5634 5631 5630 5627 5622 5619 5616 5615 5613 5612 5611 5611 5610 5610 5609
5725 5722 5706 5697 5705 5719 5723 5717 5732 5736 5734 5730 5726 5721 5715 5709 5705 5700 5695 5691 5685 5679 5673 5669 5664 5660 5656 5652 5648 5644 5641 5639 5635 5631 5628 5625 5623 5620 5615 5612 5610 5609 5607 5606 5605 5606 5605 5603 5602
5722 5723 5733 5718 5717 5711 5719 5726 5727 5728 5724 5721 5717 5712 5708 5703 5699 5695 5690 5685 5680 5674 5668 5664 5659 5654 5651 5648 5643 5639 5636 5632 5628 5624 5621 5619 5615 5613 5610 5607 5605 5603 5602 5601 5600 5600 5598 5598 5597
5729 5728 5718 5711 5697 5697 5711 5718 5723 5720 5718 5714 5710 5706 5702 5697 5693 5688 5683 5679 5675 5669 5663 5658 5654 5650 5646 5643 5639 5635 5630 5627 5622 5619 5614 5611 5608 5606 5604 5602 5600 5598 5597 5596 5594 5595 5594 5593 5592
5716 5715 5714 5716 5715 5701 5698 5713 5728 5722 5716 5711 5707 5704 5699 5692 5687 5681 5677 5673 5669 5664 5659 5653 5649 5645 5641 5638 5634 5629 5625 5621 5617 5613 5609 5606 5603 5600 5599 5597 5595 5593 5592 5590 5589 5589 5588 5587 5586
5721 5718 5714 5701 5702 5707 5704 5707 5721 5719 5714 5709 5703 5697 5692 5686 5681 5676 5672 5667 5663 5658 5654 5649 5645 5641 5637 5633 5628 5623 5618 5615 5611 5608 5604 5601 5598 5596 5594 5592 5590 5588 5587 5585 5584 5584 5583 5582 5580